Regional Weather Roundup
Issued by NWS

Home | Current Version | Previous Version | Text Only | Print | Product List | Glossary On
Versions: 1 2 3 4 5 6 7 8 9 10 11 12 13 14 15 16 17 18 19 20 21 22 23 24 25 26 27 28 29 30 31 32 33 34 35 36 37 38 39 40 41 42 43 44 45 46 47 48 49 50
000
ASUS43 KOAX 182002
RWRNE

WEATHER ROUNDUP FOR NEBRASKA
NATIONAL WEATHER SERVICE OMAHA NE
200 PM CST THU JAN 18 2018

NOTES: SATELLITE DATA IS BEING USED TO AUGMENT CLOUD COVER ABOVE
       12000 FEET.
       "FAIR" INDICATES FEW OR NO CLOUDS BELOW 12,000 FEET WITH NO
       SIGNIFICANT WEATHER AND/OR OBSTRUCTIONS TO VISIBILITY.


NEZ001>004-019>022-054>056-182100-
NEBRASKA PANHANDLE

CITY           SKY/WX    TMP DP  RH WIND       PRES   REMARKS
SCOTTSBLUFF    CLOUDY    46  30  53 NE3       29.94F
ALLIANCE       CLOUDY    42  32  67 W9        29.92F
CHADRON        CLOUDY    48  29  47 W6        29.89F
GORDON         FAIR      50  25  38 W10       29.88F
KIMBALL        CLOUDY    59  18  20 W12       29.98F
SIDNEY         CLOUDY    60  19  20 W16       29.96F
$$

NEZ057>060-069>072-079>082-182100-
SOUTHWEST NEBRASKA

CITY           SKY/WX    TMP DP  RH WIND       PRES   REMARKS
NORTH PLATTE   CLOUDY    46  28  49 W10       29.94F
IMPERIAL       CLOUDY    53  26  35 W6        29.96F
LEXINGTON      CLOUDY    45  31  58 CALM      29.93F
MCCOOK         CLOUDY    50  24  36 W9        29.96F
OGALLALA       CLOUDY    45  28  50 W9        29.95F
$$

NEZ005>010-023>029-035>040-094-182100-
NORTH CENTRAL NEBRASKA

CITY           SKY/WX    TMP DP  RH WIND       PRES   REMARKS
VALENTINE      CLOUDY    46  30  53 W9        29.86F
AINSWORTH      CLOUDY    43  31  64 W5        29.87F
BROKEN BOW     CLOUDY    41  29  62 W7        29.90F
O`NEILL        CLOUDY    41  29  63 SW6       29.86F
ORD            CLOUDY    46  28  49 SW7       29.89F
THEDFORD       CLOUDY    46  31  55 W9        29.89F
$$

NEZ041-046>049-061>064-073>077-083>087-182100-
SOUTH CENTRAL NEBRASKA

CITY           SKY/WX    TMP DP  RH WIND       PRES   REMARKS
GRAND ISLAND   CLOUDY    42  29  59 SW14      29.93F
AURORA         CLOUDY    43  31  61 SW13      29.93F
HASTINGS       CLOUDY    42  28  57 SW8       29.95F
HEBRON         CLOUDY    38  25  58 SW7       30.00F WCI  33
HOLDREGE       CLOUDY    47  28  46 SW12      29.94F
KEARNEY        CLOUDY    45  29  53 SW6       29.94F
YORK           CLOUDY    41  30  65 SW14      29.94F
$$

NEZ011>018-030>034-042>045-182100-
NORTHEAST NEBRASKA

CITY           SKY/WX    TMP DP  RH WIND       PRES   REMARKS
NORFOLK        CLOUDY    39  28  64 S12       29.85F WCI  32
ALBION         CLOUDY    46  28  50 SW8       29.89F
BLAIR          CLOUDY    40  23  49 S12       29.94F WCI  33
COLUMBUS       CLOUDY    45  26  47 SW12      29.92F
FREMONT        CLOUDY    41  23  48 S12       29.94F
TEKAMAH        CLOUDY    40  23  50 S18       29.93F WCI  31
WAYNE          CLOUDY    41  27  57 S13       29.86F
$$

NEZ050>053-065>068-078-088>093-182100-
SOUTHEAST NEBRASKA

CITY           SKY/WX    TMP DP  RH WIND       PRES   REMARKS
LINCOLN        CLOUDY    41  22  46 SW13      29.98F
OMAHA EPPLEY   CLOUDY    36  21  54 S14       29.97F WCI  27
BEATRICE       CLOUDY    35  22  60 S13       30.01F WCI  26
FALLS CITY     SUNNY     37  19  48 S13       30.06F WCI  29
NEBRASKA CITY  CLOUDY    33  21  62 S16       30.01F WCI  23
PLATTSMOUTH    CLOUDY    32  21  65 S15       29.99F WCI  21
$$

NEZ044-045-051>053-067-182100-
OMAHA AREA

CITY           SKY/WX    TMP DP  RH WIND       PRES   REMARKS
OMAHA EPPLEY   CLOUDY    36  21  54 S14       29.97F WCI  27
BLAIR          CLOUDY    40  23  49 S12       29.94F WCI  33
FREMONT        CLOUDY    41  23  48 S12       29.94F
MILLARD        CLOUDY    39  22  51 S10       29.98F WCI  32
OFFUTT AFB     CLOUDY    32  19  58 S12       29.98F WCI  23
PLATTSMOUTH    CLOUDY    32  21  65 S15       29.99F WCI  21
WAHOO          FAIR      42  22  45 S12       29.95F
$$




USA.gov is the U.S. government's official web portal to all federal, state and local government web resources and services.